| time (UTC) | temp F | wind direction | speed knots | gust knots | rain 1hr in | rain 24hr in | rain mn in | humidity % | barometer mb |
| 20260906225803 | 97 | 184 | 0.9 | 1.7 | 0.00 | 0.00 | 0.00 | 44 | 1059.7 |
| 20260906225258 | 98 | 169 | 1.7 | 2.6 | 0.00 | 0.00 | 0.00 | 44 | 1059.8 |
| 20260906224754 | 99 | 170 | 3.5 | 7.0 | 0.00 | 0.00 | 0.00 | 43 | 1059.7 |
| 20260906224250 | 102 | 169 | 2.6 | 5.2 | 0.00 | 0.00 | 0.00 | 40 | 1059.8 |
| 20260906223746 | 102 | 261 | 0.9 | 3.5 | 0.00 | 0.00 | 0.00 | 40 | 1059.8 |
| 20260906223242 | 101 | 231 | 0.9 | 1.7 | 0.00 | 0.00 | 0.00 | 41 | 1059.8 |
| 20260906222740 | 101 | 214 | 3.5 | 5.2 | 0.00 | 0.00 | 0.00 | 41 | 1059.9 |
| 20260906222239 | 101 | 240 | 0.0 | 5.2 | 0.00 | 0.00 | 0.00 | 42 | 1059.9 |
| 20260906221738 | 100 | 189 | 0.9 | 5.2 | 0.00 | 0.00 | 0.00 | 43 | 1059.8 |
| 20260906221237 | 100 | 102 | 1.7 | 3.5 | 0.00 | 0.00 | 0.00 | 42 | 1060.2 |
| 20260906220733 | 99 | 195 | 0.9 | 5.2 | 0.00 | 0.00 | 0.00 | 44 | 1060.0 |
| 20260906220228 | 99 | 127 | 1.7 | 6.1 | 0.00 | 0.00 | 0.00 | 43 | 1060.2 |
| 20260906215727 | 100 | 218 | 0.0 | 2.6 | 0.00 | 0.00 | 0.00 | 42 | 1060.0 |
| 20260906215227 | 100 | 121 | 2.6 | 8.7 | 0.00 | 0.00 | 0.00 | 42 | 1060.0 |
| 20260906214725 | 100 | 194 | 0.9 | 5.2 | 0.00 | 0.00 | 0.00 | 42 | 1059.9 |
| 20260906214221 | 99 | 132 | 1.7 | 5.2 | 0.00 | 0.00 | 0.00 | 42 | 1059.9 |
| 20260906213720 | 101 | 60 | 3.5 | 9.6 | 0.00 | 0.00 | 0.00 | 41 | 1060.0 |
| 20260906213219 | 100 | 205 | 1.7 | 2.6 | 0.00 | 0.00 | 0.00 | 41 | 1060.3 |
| 20260906212717 | 101 | 188 | 0.9 | 1.7 | 0.00 | 0.00 | 0.00 | 41 | 1060.4 |
| 20260906212213 | 100 | 185 | 0.9 | 2.6 | 0.00 | 0.00 | 0.00 | 42 | 1060.4 |
| 20260906211713 | 96 | 189 | 0.9 | 1.7 | 0.00 | 0.00 | 0.00 | 44 | 1060.5 |
| 20260906211208 | 95 | 138 | 0.9 | 7.8 | 0.00 | 0.00 | 0.00 | 47 | 1060.5 |
| 20260906210703 | 96 | 120 | 4.3 | 6.1 | 0.00 | 0.00 | 0.00 | 46 | 1060.7 |
| 20260906210203 | 96 | 132 | 1.7 | 7.8 | 0.00 | 0.00 | 0.00 | 45 | 1060.7 |
| 20260906205659 | 98 | 145 | 4.3 | 7.0 | 0.00 | 0.00 | 0.00 | 43 | 1060.8 |
| 20260906205155 | 99 | 93 | 0.9 | 7.0 | 0.00 | 0.00 | 0.00 | 43 | 1060.8 |
| 20260906204655 | 101 | 137 | 2.6 | 6.1 | 0.00 | 0.00 | 0.00 | 41 | 1060.8 |
| 20260906204154 | 101 | 239 | 0.9 | 2.6 | 0.00 | 0.00 | 0.00 | 40 | 1060.6 |
| 20260906203654 | 101 | 106 | 2.6 | 3.5 | 0.00 | 0.00 | 0.00 | 41 | 1060.9 |
| 20260906203149 | 102 | 154 | 0.9 | 2.6 | 0.00 | 0.00 | 0.00 | 39 | 1060.8 |
| 20260906202646 | 102 | 119 | 4.3 | 6.1 | 0.00 | 0.00 | 0.00 | 39 | 1060.7 |
| 20260906202145 | 102 | 172 | 1.7 | 3.5 | 0.00 | 0.00 | 0.00 | 39 | 1061.0 |
| 20260906201641 | 102 | 266 | 0.9 | 3.5 | 0.00 | 0.00 | 0.00 | 39 | 1061.1 |
| 20260906201139 | 100 | 207 | 0.9 | 2.6 | 0.00 | 0.00 | 0.00 | 40 | 1061.1 |
| 20260906200636 | 98 | 137 | 0.9 | 2.6 | 0.00 | 0.00 | 0.00 | 42 | 1061.0 |
| 20260906200131 | 98 | 31 | 4.3 | 5.2 | 0.00 | 0.00 | 0.00 | 43 | 1061.3 |
| 20260906195627 | 98 | 194 | 1.7 | 5.2 | 0.00 | 0.00 | 0.00 | 42 | 1061.2 |
| 20260906195123 | 98 | 35 | 0.9 | 7.0 | 0.00 | 0.00 | 0.00 | 43 | 1061.4 |
| 20260906194619 | 97 | 54 | 4.3 | 7.8 | 0.00 | 0.00 | 0.00 | 43 | 1061.3 |
| 20260906194115 | 99 | 141 | 4.3 | 9.6 | 0.00 | 0.00 | 0.00 | 43 | 1061.4 |
| 20260906193615 | 99 | 89 | 5.2 | 7.8 | 0.00 | 0.00 | 0.00 | 42 | 1061.5 |
| 20260906193110 | 97 | 193 | 0.9 | 3.5 | 0.00 | 0.00 | 0.00 | 44 | 1061.5 |
| 20260906192605 | 96 | 97 | 0.9 | 3.5 | 0.00 | 0.00 | 0.00 | 45 | 1061.6 |
| 20260906192104 | 99 | 108 | 3.5 | 9.6 | 0.00 | 0.00 | 0.00 | 43 | 1061.6 |
| 20260906191600 | 99 | 229 | 0.0 | 3.5 | 0.00 | 0.00 | 0.00 | 41 | 1061.7 |
| 20260906191059 | 98 | 223 | 1.7 | 2.6 | 0.00 | 0.00 | 0.00 | 42 | 1061.7 |
| 20260906190558 | 97 | 30 | 0.9 | 5.2 | 0.00 | 0.00 | 0.00 | 44 | 1061.8 |
| 20260906190053 | 98 | 81 | 3.5 | 6.1 | 0.00 | 0.00 | 0.00 | 44 | 1061.7 |
| 20260906185552 | 97 | 88 | 3.5 | 7.0 | 0.00 | 0.00 | 0.00 | 44 | 1061.8 |
| 20260906185051 | 98 | 83 | 1.7 | 2.6 | 0.00 | 0.00 | 0.00 | 44 | 1062.0 |
| 20260906184546 | 98 | 84 | 3.5 | 7.0 | 0.00 | 0.00 | 0.00 | 44 | 1061.9 |
| 20260906184042 | 98 | 65 | 5.2 | 6.1 | 0.00 | 0.00 | 0.00 | 44 | 1062.0 |
| 20260906183538 | 98 | 143 | 0.0 | 2.6 | 0.00 | 0.00 | 0.00 | 43 | 1062.1 |
| 20260906183033 | 96 | 128 | 1.7 | 5.2 | 0.00 | 0.00 | 0.00 | 45 | 1062.2 |
| 20260906182528 | 95 | 142 | 2.6 | 5.2 | 0.00 | 0.00 | 0.00 | 45 | 1062.3 |
| 20260906182024 | 93 | 172 | 0.0 | 0.9 | 0.00 | 0.00 | 0.00 | 48 | 1062.5 |
| 20260906181520 | 93 | 190 | 0.9 | 0.9 | 0.00 | 0.00 | 0.00 | 49 | 1062.3 |
| 20260906181015 | 95 | 78 | 1.7 | 2.6 | 0.00 | 0.00 | 0.00 | 47 | 1062.6 |
| 20260906180510 | 95 | 181 | 0.0 | 2.6 | 0.00 | 0.00 | 0.00 | 47 | 1062.8 |
| 20260906180009 | 95 | 156 | 2.6 | 5.2 | 0.00 | 0.00 | 0.00 | 46 | 1062.6 |
| 20260906175503 | 94 | 97 | 1.7 | 6.1 | 0.00 | 0.00 | 0.00 | 48 | 1062.8 |
| 20260906175003 | 94 | 62 | 0.9 | 6.1 | 0.00 | 0.00 | 0.00 | 49 | 1063.0 |
| 20260906174501 | 93 | 178 | 2.6 | 3.5 | 0.00 | 0.00 | 0.00 | 50 | 1063.2 |
| 20260906173956 | 93 | 65 | 2.6 | 5.2 | 0.00 | 0.00 | 0.00 | 50 | 1063.2 |
| 20260906173452 | 95 | 90 | 4.3 | 7.8 | 0.00 | 0.00 | 0.00 | 47 | 1063.2 |
| 20260906172951 | 96 | 30 | 4.3 | 7.0 | 0.00 | 0.00 | 0.00 | 46 | 1063.3 |
| 20260906172448 | 95 | 59 | 0.9 | 2.6 | 0.00 | 0.00 | 0.00 | 47 | 1063.4 |
| 20260906171943 | 93 | 178 | 0.0 | 0.9 | 0.00 | 0.00 | 0.00 | 49 | 1063.4 |
| 20260906171443 | 94 | 114 | 0.9 | 5.2 | 0.00 | 0.00 | 0.00 | 48 | 1063.5 |
| 20260906170938 | 97 | 46 | 1.7 | 3.5 | 0.00 | 0.00 | 0.00 | 45 | 1063.6 |
| 20260906170435 | 97 | 169 | 1.7 | 7.8 | 0.00 | 0.00 | 0.00 | 44 | 1063.3 |
| 20260906165931 | 96 | 155 | 2.6 | 3.5 | 0.00 | 0.00 | 0.00 | 45 | 1063.5 |
| 20260906165430 | 95 | 119 | 2.6 | 5.2 | 0.00 | 0.00 | 0.00 | 46 | 1063.6 |
| 20260906164926 | 95 | 121 | 3.5 | 6.1 | 0.00 | 0.00 | 0.00 | 47 | 1063.7 |
| 20260906164424 | 94 | 200 | 0.9 | 6.1 | 0.00 | 0.00 | 0.00 | 48 | 1063.7 |
| 20260906163921 | 95 | 59 | 4.3 | 7.0 | 0.00 | 0.00 | 0.00 | 48 | 1063.7 |
| 20260906163416 | 95 | 279 | 1.7 | 5.2 | 0.00 | 0.00 | 0.00 | 49 | 1063.8 |
| 20260906162915 | 94 | 57 | 2.6 | 5.2 | 0.00 | 0.00 | 0.00 | 49 | 1063.7 |
| 20260906162413 | 94 | 329 | 0.9 | 3.5 | 0.00 | 0.00 | 0.00 | 49 | 1063.7 |
| 20260906161908 | 93 | 96 | 1.7 | 1.7 | 0.00 | 0.00 | 0.00 | 51 | 1063.8 |
| 20260906161408 | 93 | 336 | 3.5 | 5.2 | 0.00 | 0.00 | 0.00 | 51 | 1063.8 |
| 20260906160907 | 92 | 241 | 1.7 | 2.6 | 0.00 | 0.00 | 0.00 | 51 | 1063.6 |
| 20260906160401 | 93 | 220 | 1.7 | 3.5 | 0.00 | 0.00 | 0.00 | 51 | 1063.8 |
| 20260906155858 | 94 | 37 | 0.9 | 2.6 | 0.00 | 0.00 | 0.00 | 50 | 1063.7 |
| 20260906155352 | 93 | 128 | 0.9 | 1.7 | 0.00 | 0.00 | 0.00 | 51 | 1063.8 |
| 20260906154849 | 91 | 169 | 0.9 | 0.9 | 0.00 | 0.00 | 0.00 | 54 | 1063.8 |
| 20260906154343 | 91 | 307 | 2.6 | 2.6 | 0.00 | 0.00 | 0.00 | 55 | 1063.6 |
| 20260906153842 | 90 | 271 | 0.9 | 5.2 | 0.00 | 0.00 | 0.00 | 57 | 1063.7 |
| 20260906153341 | 90 | 209 | 1.7 | 3.5 | 0.00 | 0.00 | 0.00 | 57 | 1063.7 |
| 20260906152837 | 89 | 251 | 0.0 | 1.7 | 0.00 | 0.00 | 0.00 | 57 | 1063.6 |
| 20260906152332 | 89 | 226 | 1.7 | 3.5 | 0.00 | 0.00 | 0.00 | 58 | 1063.7 |
| 20260906151831 | 89 | 279 | 2.6 | 5.2 | 0.00 | 0.00 | 0.00 | 58 | 1063.6 |
| 20260906151326 | 89 | 262 | 0.9 | 5.2 | 0.00 | 0.00 | 0.00 | 58 | 1063.7 |
| 20260906150822 | 89 | 271 | 2.6 | 3.5 | 0.00 | 0.00 | 0.00 | 58 | 1063.6 |
| 20260906150318 | 89 | 206 | 0.9 | 1.7 | 0.00 | 0.00 | 0.00 | 58 | 1063.8 |
| 20260906145817 | 88 | 340 | 1.7 | 2.6 | 0.00 | 0.00 | 0.00 | 58 | 1063.8 |
| 20260906145315 | 87 | 263 | 2.6 | 3.5 | 0.00 | 0.00 | 0.00 | 60 | 1063.7 |
| 20260906144811 | 87 | 229 | 3.5 | 3.5 | 0.00 | 0.00 | 0.00 | 61 | 1063.6 |
| 20260906144306 | 86 | 265 | 2.6 | 3.5 | 0.00 | 0.00 | 0.00 | 61 | 1063.8 |
| 20260906143805 | 87 | 223 | 3.5 | 3.5 | 0.00 | 0.00 | 0.00 | 61 | 1063.9 |
| 20260906143302 | 86 | 308 | 0.9 | 2.6 | 0.00 | 0.00 | 0.00 | 62 | 1063.8 |
| 20260906142802 | 87 | 208 | 1.7 | 2.6 | 0.00 | 0.00 | 0.00 | 61 | 1063.7 |
| 20260906142257 | 86 | 209 | 0.9 | 2.6 | 0.00 | 0.00 | 0.00 | 61 | 1063.6 |
| 20260906141756 | 86 | 222 | 0.9 | 3.5 | 0.00 | 0.00 | 0.00 | 62 | 1063.5 |
| 20260906141251 | 86 | 213 | 1.7 | 2.6 | 0.00 | 0.00 | 0.00 | 62 | 1063.6 |
| 20260906140750 | 86 | 100 | 0.0 | 0.9 | 0.00 | 0.00 | 0.00 | 62 | 1063.4 |
| 20260906140245 | 86 | 190 | 0.0 | 0.9 | 0.00 | 0.00 | 0.00 | 62 | 1063.6 |
| 20260906135742 | 86 | 171 | 0.0 | 2.6 | 0.00 | 0.00 | 0.00 | 63 | 1063.4 |
| 20260906135238 | 86 | 181 | 0.0 | 0.0 | 0.00 | 0.00 | 0.00 | 63 | 1063.4 |
| 20260906134733 | 85 | 153 | 0.0 | 0.9 | 0.00 | 0.00 | 0.00 | 64 | 1063.5 |
| 20260906134228 | 84 | 160 | 0.0 | 0.0 | 0.00 | 0.00 | 0.00 | 66 | 1063.7 |
| 20260906133724 | 84 | 165 | 0.9 | 1.7 | 0.00 | 0.00 | 0.00 | 67 | 1063.3 |
| 20260906133219 | 84 | 178 | 0.9 | 0.9 | 0.00 | 0.00 | 0.00 | 68 | 1063.5 |
| 20260906132714 | 82 | 154 | 0.0 | 0.0 | 0.00 | 0.00 | 0.00 | 70 | 1063.5 |
| 20260906132210 | 80 | 144 | 0.0 | 0.0 | 0.00 | 0.00 | 0.00 | 74 | 1063.4 |
| 20260906131705 | 79 | 121 | 0.0 | 0.0 | 0.00 | 0.00 | 0.00 | 75 | 1063.5 |
| 20260906131200 | 78 | 75 | 0.9 | 0.9 | 0.00 | 0.00 | 0.00 | 77 | 1063.4 |
| 20260906130655 | 77 | 144 | 0.0 | 0.9 | 0.00 | 0.00 | 0.00 | 78 | 1063.2 |
| 20260906130151 | 77 | 97 | 0.0 | 0.0 | 0.00 | 0.00 | 0.00 | 78 | 1063.2 |
| 20260906125648 | 75 | 156 | 0.0 | 0.0 | 0.00 | 0.00 | 0.00 | 82 | 1063.2 |
| 20260906125147 | 74 | 159 | 0.0 | 0.0 | 0.00 | 0.00 | 0.00 | 84 | 1063.2 |
| 20260906124643 | 73 | 159 | 0.0 | 0.0 | 0.00 | 0.00 | 0.00 | 87 | 1063.0 |
| 20260906124138 | 72 | 137 | 0.0 | 0.0 | 0.00 | 0.00 | 0.00 | 88 | 1062.8 |
| 20260906123637 | 71 | 135 | 0.0 | 0.0 | 0.00 | 0.00 | 0.00 | 89 | 1062.8 |
| 20260906123132 | 71 | 129 | 0.0 | 0.0 | 0.00 | 0.00 | 0.00 | 89 | 1062.8 |
| 20260906122632 | 71 | 123 | 0.0 | 0.0 | 0.00 | 0.00 | 0.00 | 89 | 1062.8 |
| 20260906122127 | 71 | 91 | 0.0 | 0.0 | 0.00 | 0.00 | 0.00 | 89 | 1062.7 |
| 20260906121623 | 71 | 117 | 0.0 | 0.0 | 0.00 | 0.00 | 0.00 | 89 | 1062.7 |
| 20260906121120 | 71 | 101 | 0.0 | 0.9 | 0.00 | 0.00 | 0.00 | 89 | 1062.7 |
| 20260906120615 | 71 | 128 | 0.0 | 0.0 | 0.00 | 0.00 | 0.00 | 88 | 1062.6 |
| 20260906120113 | 71 | 128 | 0.0 | 0.9 | 0.00 | 0.00 | 0.00 | 88 | 1062.5 |
| 20260906115612 | 71 | 115 | 0.0 | 0.0 | 0.00 | 0.00 | 0.00 | 89 | 1062.3 |
| 20260906115108 | 71 | 129 | 0.0 | 0.0 | 0.00 | 0.00 | 0.00 | 88 | 1062.5 |
| 20260906114607 | 71 | 126 | 0.0 | 0.0 | 0.00 | 0.00 | 0.00 | 88 | 1062.3 |
| 20260906114103 | 71 | 132 | 0.0 | 0.0 | 0.00 | 0.00 | 0.00 | 88 | 1062.2 |
| 20260906113602 | 71 | 131 | 0.0 | 0.0 | 0.00 | 0.00 | 0.00 | 88 | 1062.4 |
| 20260906113057 | 72 | 132 | 0.0 | 0.0 | 0.00 | 0.00 | 0.00 | 88 | 1062.3 |
| 20260906112557 | 72 | 132 | 0.0 | 0.0 | 0.00 | 0.00 | 0.00 | 88 | 1062.1 |
| 20260906112054 | 72 | 132 | 0.0 | 0.0 | 0.00 | 0.00 | 0.00 | 88 | 1062.1 |
| 20260906111553 | 72 | 104 | 0.0 | 0.0 | 0.00 | 0.00 | 0.00 | 88 | 1062.0 |
| 20260906111048 | 72 | 156 | 0.0 | 0.0 | 0.00 | 0.00 | 0.00 | 89 | 1061.9 |
| 20260906110548 | 72 | 156 | 0.0 | 0.0 | 0.00 | 0.00 | 0.00 | 89 | 1062.0 |
| 20260906110048 | 72 | 184 | 0.0 | 0.0 | 0.00 | 0.00 | 0.00 | 88 | 1062.1 |
| 20260906105543 | 72 | 171 | 0.0 | 0.0 | 0.00 | 0.00 | 0.00 | 87 | 1061.8 |
| 20260906105039 | 73 | 144 | 0.0 | 0.0 | 0.00 | 0.00 | 0.00 | 87 | 1061.9 |
| 20260906104537 | 73 | 144 | 0.0 | 0.0 | 0.00 | 0.00 | 0.00 | 86 | 1061.9 |
| 20260906104032 | 73 | 133 | 0.0 | 0.0 | 0.00 | 0.00 | 0.00 | 86 | 1062.1 |
| 20260906103530 | 73 | 149 | 0.0 | 0.0 | 0.00 | 0.00 | 0.00 | 86 | 1062.0 |
| 20260906103026 | 73 | 174 | 0.0 | 0.0 | 0.00 | 0.00 | 0.00 | 85 | 1061.9 |
| 20260906102526 | 74 | 170 | 0.0 | 0.0 | 0.00 | 0.00 | 0.00 | 84 | 1062.1 |
| 20260906102021 | 74 | 132 | 0.0 | 0.0 | 0.00 | 0.00 | 0.00 | 85 | 1061.9 |
| 20260906101521 | 74 | 168 | 0.0 | 0.0 | 0.00 | 0.00 | 0.00 | 85 | 1062.0 |
| 20260906101016 | 74 | 142 | 0.0 | 0.0 | 0.00 | 0.00 | 0.00 | 84 | 1061.9 |
| 20260906100511 | 74 | 133 | 0.0 | 0.0 | 0.00 | 0.00 | 0.00 | 84 | 1061.9 |
| 20260906100006 | 75 | 150 | 0.0 | 0.0 | 0.00 | 0.00 | 0.00 | 83 | 1061.8 |
| 20260906095501 | 75 | 142 | 0.0 | 0.0 | 0.00 | 0.00 | 0.00 | 83 | 1061.7 |
| 20260906094956 | 75 | 170 | 0.0 | 0.0 | 0.00 | 0.00 | 0.00 | 81 | 1061.9 |
| 20260906094455 | 76 | 134 | 0.0 | 0.0 | 0.00 | 0.00 | 0.00 | 81 | 1062.0 |
| 20260906093951 | 76 | 145 | 0.0 | 0.0 | 0.00 | 0.00 | 0.00 | 81 | 1061.8 |
| 20260906093447 | 76 | 137 | 0.9 | 0.9 | 0.00 | 0.00 | 0.00 | 82 | 1061.9 |
| 20260906092947 | 76 | 283 | 0.9 | 0.9 | 0.00 | 0.00 | 0.00 | 81 | 1062.1 |
| 20260906092447 | 76 | 89 | 1.7 | 1.7 | 0.00 | 0.00 | 0.00 | 81 | 1061.9 |
| 20260906091942 | 76 | 112 | 0.0 | 0.9 | 0.00 | 0.00 | 0.00 | 81 | 1061.7 |
| 20260906091438 | 76 | 117 | 0.0 | 0.9 | 0.00 | 0.00 | 0.00 | 80 | 1061.8 |
| 20260906090935 | 76 | 101 | 0.0 | 0.9 | 0.00 | 0.00 | 0.00 | 80 | 1061.7 |
| 20260906090430 | 76 | 84 | 0.9 | 0.9 | 0.00 | 0.00 | 0.00 | 80 | 1061.8 |
| 20260906085930 | 76 | 97 | 0.0 | 0.9 | 0.00 | 0.00 | 0.00 | 80 | 1061.6 |
| 20260906085429 | 76 | 117 | 0.0 | 0.9 | 0.00 | 0.00 | 0.00 | 80 | 1061.7 |
| 20260906084928 | 76 | 91 | 0.9 | 0.9 | 0.00 | 0.00 | 0.00 | 79 | 1061.8 |
| 20260906084423 | 76 | 137 | 0.0 | 1.7 | 0.00 | 0.00 | 0.00 | 79 | 1061.5 |
| 20260906083922 | 76 | 149 | 0.0 | 0.0 | 0.00 | 0.00 | 0.00 | 79 | 1061.7 |
| 20260906083418 | 76 | 134 | 0.0 | 0.0 | 0.00 | 0.00 | 0.00 | 79 | 1061.7 |
| 20260906082917 | 77 | 137 | 0.0 | 0.0 | 0.00 | 0.00 | 0.00 | 79 | 1061.4 |
| 20260906082413 | 77 | 131 | 0.0 | 0.0 | 0.00 | 0.00 | 0.00 | 78 | 1061.5 |
| 20260906081909 | 77 | 138 | 0.0 | 0.0 | 0.00 | 0.00 | 0.00 | 78 | 1061.5 |
| 20260906081404 | 77 | 159 | 0.0 | 0.0 | 0.00 | 0.00 | 0.00 | 78 | 1061.7 |
| 20260906080900 | 77 | 178 | 0.0 | 0.9 | 0.00 | 0.00 | 0.00 | 78 | 1061.7 |
| 20260906080356 | 77 | 191 | 0.9 | 0.9 | 0.00 | 0.00 | 0.00 | 78 | 1061.7 |
| 20260906075855 | 77 | 177 | 0.0 | 0.0 | 0.00 | 0.00 | 0.00 | 78 | 1061.7 |
| 20260906075350 | 77 | 148 | 0.0 | 0.9 | 0.00 | 0.00 | 0.00 | 77 | 1061.7 |
| 20260906074846 | 77 | 166 | 0.0 | 1.7 | 0.00 | 0.00 | 0.00 | 77 | 1061.9 |
| 20260906074345 | 77 | 147 | 0.0 | 0.9 | 0.00 | 0.00 | 0.00 | 77 | 1061.7 |
| 20260906073844 | 78 | 153 | 0.0 | 0.0 | 0.00 | 0.00 | 0.00 | 76 | 1061.6 |
| 20260906073339 | 78 | 134 | 0.0 | 0.9 | 0.00 | 0.00 | 0.00 | 76 | 1061.9 |
| 20260906072836 | 78 | 173 | 0.0 | 0.9 | 0.00 | 0.00 | 0.00 | 76 | 1061.8 |
| 20260906072331 | 78 | 180 | 0.0 | 0.9 | 0.00 | 0.00 | 0.00 | 76 | 1061.6 |
| 20260906071827 | 78 | 154 | 0.9 | 0.9 | 0.00 | 0.00 | 0.00 | 75 | 1061.9 |
| 20260906071327 | 78 | 167 | 0.0 | 0.9 | 0.00 | 0.00 | 0.00 | 75 | 1061.9 |
| 20260906070824 | 78 | 121 | 0.9 | 1.7 | 0.00 | 0.00 | 0.00 | 75 | 1062.0 |
| 20260906070319 | 78 | 190 | 0.9 | 0.9 | 0.00 | 0.00 | 0.00 | 74 | 1061.9 |
| 20260906065820 | 79 | 164 | 0.0 | 1.7 | 0.00 | 0.00 | 0.00 | 74 | 1062.0 |
| 20260906065315 | 79 | 150 | 0.9 | 1.7 | 0.00 | 0.00 | 0.00 | 73 | 1062.0 |
| 20260906064811 | 79 | 125 | 0.0 | 1.7 | 0.00 | 0.00 | 0.00 | 73 | 1062.1 |
| 20260906064307 | 79 | 122 | 0.9 | 0.9 | 0.00 | 0.00 | 0.00 | 72 | 1062.3 |
| 20260906063807 | 79 | 165 | 0.0 | 1.7 | 0.00 | 0.00 | 0.00 | 72 | 1062.4 |
| 20260906063302 | 80 | 170 | 0.0 | 1.7 | 0.00 | 0.00 | 0.00 | 72 | 1062.5 |
| 20260906062757 | 80 | 102 | 0.0 | 1.7 | 0.00 | 0.00 | 0.00 | 71 | 1062.4 |
| 20260906062256 | 80 | 158 | 1.7 | 5.2 | 0.00 | 0.00 | 0.00 | 71 | 1062.3 |
| 20260906061752 | 80 | 163 | 2.6 | 3.5 | 0.00 | 0.00 | 0.00 | 71 | 1062.5 |
| 20260906061248 | 80 | 189 | 0.0 | 2.6 | 0.00 | 0.00 | 0.00 | 70 | 1062.5 |
| 20260906060743 | 80 | 183 | 0.9 | 1.7 | 0.00 | 0.00 | 0.00 | 70 | 1062.7 |
| 20260906060241 | 80 | 130 | 1.7 | 1.7 | 0.00 | 0.00 | 0.00 | 69 | 1062.5 |
| 20260906055736 | 80 | 107 | 1.7 | 5.2 | 0.00 | 0.00 | 0.00 | 69 | 1062.5 |
| 20260906055231 | 81 | 152 | 0.9 | 3.5 | 0.00 | 0.00 | 0.00 | 69 | 1062.6 |
| 20260906054727 | 81 | 113 | 1.7 | 2.6 | 0.00 | 0.00 | 0.00 | 68 | 1062.6 |
| 20260906054222 | 81 | 131 | 0.9 | 1.7 | 0.00 | 0.00 | 0.00 | 68 | 1062.4 |
| 20260906053718 | 81 | 181 | 0.0 | 1.7 | 0.00 | 0.00 | 0.00 | 68 | 1062.5 |
| 20260906053214 | 81 | 127 | 1.7 | 1.7 | 0.00 | 0.00 | 0.00 | 68 | 1062.5 |
| 20260906052708 | 81 | 211 | 0.9 | 2.6 | 0.00 | 0.00 | 0.00 | 68 | 1062.4 |
| 20260906052205 | 81 | 135 | 0.9 | 1.7 | 0.00 | 0.00 | 0.00 | 68 | 1062.5 |
| 20260906051702 | 82 | 165 | 0.9 | 1.7 | 0.00 | 0.00 | 0.00 | 67 | 1062.5 |
| 20260906051201 | 82 | 139 | 0.0 | 3.5 | 0.00 | 0.00 | 0.00 | 67 | 1062.5 |
| 20260906050656 | 82 | 120 | 0.9 | 1.7 | 0.00 | 0.00 | 0.00 | 67 | 1062.6 |
| 20260906050151 | 82 | 114 | 0.9 | 2.6 | 0.00 | 0.00 | 0.00 | 67 | 1062.5 |
| 20260906045650 | 82 | 124 | 1.7 | 2.6 | 0.00 | 0.00 | 0.00 | 67 | 1062.5 |
| 20260906045145 | 82 | 125 | 0.9 | 2.6 | 0.00 | 0.00 | 0.00 | 67 | 1062.7 |
| 20260906044641 | 82 | 134 | 1.7 | 1.7 | 0.00 | 0.00 | 0.00 | 67 | 1062.4 |
| 20260906044136 | 82 | 158 | 1.7 | 5.2 | 0.00 | 0.00 | 0.00 | 67 | 1062.7 |
| 20260906043632 | 83 | 167 | 0.0 | 0.9 | 0.00 | 0.00 | 0.00 | 67 | 1062.4 |
| 20260906043127 | 83 | 152 | 0.0 | 2.6 | 0.00 | 0.00 | 0.00 | 67 | 1062.5 |
| 20260906042627 | 83 | 158 | 0.0 | 1.7 | 0.00 | 0.00 | 0.00 | 66 | 1062.4 |
| 20260906042121 | 83 | 169 | 0.9 | 2.6 | 0.00 | 0.00 | 0.00 | 66 | 1062.3 |
| 20260906041618 | 83 | 194 | 2.6 | 3.5 | 0.00 | 0.00 | 0.00 | 66 | 1062.4 |
| 20260906041117 | 83 | 158 | 0.0 | 1.7 | 0.00 | 0.00 | 0.00 | 66 | 1062.4 |
| 20260906040613 | 84 | 161 | 0.9 | 2.6 | 0.00 | 0.00 | 0.00 | 66 | 1062.4 |
| 20260906040109 | 84 | 169 | 0.0 | 1.7 | 0.00 | 0.00 | 0.00 | 65 | 1062.4 |
| 20260906035603 | 84 | 128 | 0.9 | 2.6 | 0.00 | 0.00 | 0.00 | 65 | 1062.3 |
| 20260906035059 | 84 | 139 | 0.0 | 5.2 | 0.00 | 0.00 | 0.00 | 65 | 1062.1 |
| 20260906034559 | 84 | 85 | 2.6 | 2.6 | 0.00 | 0.00 | 0.00 | 64 | 1062.1 |
| 20260906034054 | 84 | 154 | 0.9 | 2.6 | 0.00 | 0.00 | 0.00 | 64 | 1062.0 |
| 20260906033549 | 85 | 88 | 2.6 | 6.1 | 0.00 | 0.00 | 0.00 | 63 | 1062.2 |
| 20260906033045 | 85 | 113 | 3.5 | 5.2 | 0.00 | 0.00 | 0.00 | 63 | 1062.1 |
| 20260906032541 | 85 | 104 | 3.5 | 7.0 | 0.00 | 0.00 | 0.00 | 62 | 1062.2 |
| 20260906032036 | 85 | 146 | 1.7 | 3.5 | 0.00 | 0.00 | 0.00 | 61 | 1062.0 |
| 20260906031532 | 85 | 198 | 3.5 | 5.2 | 0.00 | 0.00 | 0.00 | 61 | 1062.0 |
| 20260906031027 | 85 | 156 | 1.7 | 2.6 | 0.00 | 0.00 | 0.00 | 61 | 1061.8 |
| 20260906030526 | 85 | 145 | 2.6 | 5.2 | 0.00 | 0.00 | 0.00 | 60 | 1061.7 |
| 20260906030026 | 85 | 131 | 0.9 | 5.2 | 0.00 | 0.00 | 0.00 | 59 | 1061.8 |
| 20260906025526 | 85 | 93 | 0.9 | 3.5 | 0.00 | 0.00 | 0.00 | 58 | 1061.7 |
| 20260906025024 | 85 | 136 | 2.6 | 5.2 | 0.00 | 0.00 | 0.00 | 57 | 1061.9 |
| 20260906024519 | 85 | 137 | 1.7 | 3.5 | 0.00 | 0.00 | 0.00 | 56 | 1061.7 |
| 20260906024019 | 84 | 144 | 0.9 | 3.5 | 0.00 | 0.00 | 0.00 | 56 | 1061.6 |
| 20260906023515 | 85 | 133 | 0.0 | 0.9 | 0.00 | 0.00 | 0.00 | 55 | 1061.3 |
| 20260906023010 | 85 | 137 | 0.0 | 0.0 | 0.00 | 0.00 | 0.00 | 55 | 1061.1 |
| 20260906022506 | 85 | 128 | 0.0 | 1.7 | 0.00 | 0.00 | 0.00 | 54 | 1061.2 |
| 20260906022001 | 85 | 136 | 0.0 | 1.7 | 0.00 | 0.00 | 0.00 | 54 | 1061.2 |
| 20260906021456 | 86 | 123 | 0.9 | 1.7 | 0.00 | 0.00 | 0.00 | 53 | 1061.0 |
| 20260906020950 | 86 | 102 | 0.0 | 0.9 | 0.00 | 0.00 | 0.00 | 53 | 1061.0 |
| 20260906020444 | 86 | 90 | 0.9 | 1.7 | 0.00 | 0.00 | 0.00 | 53 | 1060.9 |
| 20260906015944 | 86 | 95 | 0.9 | 0.9 | 0.00 | 0.00 | 0.00 | 52 | 1060.7 |
| 20260906015443 | 86 | 142 | 0.0 | 0.9 | 0.00 | 0.00 | 0.00 | 52 | 1060.8 |
| 20260906014943 | 86 | 148 | 0.0 | 2.6 | 0.00 | 0.00 | 0.00 | 52 | 1060.7 |
| 20260906014438 | 86 | 99 | 1.7 | 1.7 | 0.00 | 0.00 | 0.00 | 51 | 1060.6 |
| 20260906013934 | 86 | 76 | 1.7 | 2.6 | 0.00 | 0.00 | 0.00 | 51 | 1060.4 |
| 20260906013429 | 87 | 132 | 0.0 | 0.0 | 0.00 | 0.00 | 0.00 | 51 | 1060.6 |
| 20260906012925 | 87 | 133 | 0.0 | 0.0 | 0.00 | 0.00 | 0.00 | 50 | 1060.4 |
| 20260906012425 | 88 | 115 | 0.0 | 0.9 | 0.00 | 0.00 | 0.00 | 49 | 1060.2 |
| 20260906011924 | 88 | 124 | 0.0 | 0.0 | 0.00 | 0.00 | 0.00 | 49 | 1060.4 |
| 20260906011420 | 89 | 149 | 0.0 | 0.9 | 0.00 | 0.00 | 0.00 | 48 | 1060.3 |
| 20260906010915 | 90 | 142 | 0.0 | 0.9 | 0.00 | 0.00 | 0.00 | 47 | 1060.3 |
| 20260906010410 | 90 | 141 | 0.0 | 0.9 | 0.00 | 0.00 | 0.00 | 46 | 1060.3 |
| 20260906005906 | 91 | 144 | 0.0 | 0.9 | 0.00 | 0.00 | 0.00 | 46 | 1060.3 |
| 20260906005406 | 91 | 160 | 0.0 | 0.9 | 0.00 | 0.00 | 0.00 | 45 | 1060.4 |
| 20260906004905 | 92 | 144 | 0.9 | 0.9 | 0.00 | 0.00 | 0.00 | 45 | 1060.2 |
| 20260906004404 | 92 | 167 | 0.0 | 2.6 | 0.00 | 0.00 | 0.00 | 44 | 1059.9 |
| 20260906003900 | 93 | 99 | 1.7 | 2.6 | 0.00 | 0.00 | 0.00 | 44 | 1060.0 |
| 20260906003356 | 93 | 78 | 1.7 | 2.6 | 0.00 | 0.00 | 0.00 | 43 | 1059.9 |
| 20260906002851 | 94 | 131 | 0.9 | 2.6 | 0.00 | 0.00 | 0.00 | 43 | 1059.8 |
| 20260906002350 | 95 | 155 | 1.7 | 3.5 | 0.00 | 0.00 | 0.00 | 42 | 1059.8 |
| 20260906001846 | 95 | 130 | 1.7 | 2.6 | 0.00 | 0.00 | 0.00 | 41 | 1059.9 |
| 20260906001341 | 96 | 123 | 2.6 | 6.1 | 0.00 | 0.00 | 0.00 | 41 | 1059.9 |
| 20260906000836 | 96 | 80 | 1.7 | 2.6 | 0.00 | 0.00 | 0.00 | 40 | 1060.2 |
| 20260906000336 | 97 | 245 | 0.0 | 1.7 | 0.00 | 0.00 | 0.00 | 40 | 1059.9 |
| 20260905235836 | 96 | 160 | 1.7 | 1.7 | 0.00 | 0.00 | 0.00 | 40 | 1060.0 |
| 20260905235331 | 96 | 92 | 1.7 | 2.6 | 0.00 | 0.00 | 0.00 | 40 | 1060.0 |
| 20260905234826 | 97 | 140 | 1.7 | 3.5 | 0.00 | 0.00 | 0.00 | 39 | 1059.8 |
| 20260905234322 | 97 | 167 | 0.9 | 3.5 | 0.00 | 0.00 | 0.00 | 39 | 1059.9 |
| 20260905233816 | 97 | 175 | 1.7 | 2.6 | 0.00 | 0.00 | 0.00 | 39 | 1059.6 |
| 20260905233312 | 98 | 196 | 1.7 | 3.5 | 0.00 | 0.00 | 0.00 | 38 | 1059.7 |
| 20260905232811 | 98 | 155 | 0.9 | 3.5 | 0.00 | 0.00 | 0.00 | 39 | 1059.9 |
| 20260905232307 | 99 | 173 | 2.6 | 6.1 | 0.00 | 0.00 | 0.00 | 38 | 1060.2 |
| 20260905231802 | 99 | 152 | 1.7 | 2.6 | 0.00 | 0.00 | 0.00 | 37 | 1059.8 |
| 20260905231257 | 99 | 148 | 0.9 | 1.7 | 0.00 | 0.00 | 0.00 | 37 | 1059.5 |
| 20260905230754 | 99 | 190 | 0.9 | 1.7 | 0.00 | 0.00 | 0.00 | 38 | 1059.8 |
| 20260905230251 | 99 | 207 | 1.7 | 3.5 | 0.00 | 0.00 | 0.00 | 38 | 1059.6 |